Theta_e
305 306 303 303 307 305 307 310 313 310 303 306 300 299 299 295 290 292 293 289 289 289 290 290 289 289 289 289 288 288 288 287 286 286 286 286 286 286 286 286 286 286 286 286
299 305 304 308 308 305 308 308 307 307 309 300 299 297 296 295 295 292 290 289 285 289 290 289 288 288 288 288 287 287 286 285 284 284 284 285 285 285 285 285 284 284 284 285
312 308 307 309 306 305 295 289 301 309 301 297 297 297 296 296 294 292 291 291 288 285 289 289 288 288 288 287 286 285 283 283 283 283 283 283 283 282 283 283 282 283 283 283
310 308 310 295 289 287 295 298 298 298 297 295 294 295 294 293 290 289 284 283 282 290 290 289 288 287 286 285 284 283 282 281 281 282 282 281 282 282 281 281 282 282 282 281
308 308 305 300 298 295 296 299 295 292 292 291 291 294 293 291 285 283 284 288 287 289 290 288 286 285 284 282 281 280 280 280 280 280 279 280 280 280 280 280 281 280 280 280
306 307 306 296 296 295 294 297 293 289 291 289 286 291 286 288 291 291 290 289 289 289 287 285 283 283 281 279 278 278 278 278 278 278 278 278 279 279 279 279 279 279 280 280
305 307 303 297 297 295 300 294 292 290 285 282 285 285 285 283 286 288 289 289 289 287 284 282 281 279 278 277 277 277 277 277 277 277 277 278 278 278 278 279 279 279 279 279
296 298 294 295 296 298 294 293 291 287 282 283 283 282 282 282 278 287 286 285 284 282 281 279 277 277 276 276 276 276 276 276 277 277 277 277 278 278 279 279 278 278 278 278
298 296 295 294 296 293 292 292 290 285 282 283 286 285 285 281 276 282 283 281 280 280 278 277 277 276 275 276 275 275 275 276 276 277 277 277 278 278 278 278 278 278 278 278
295 297 294 292 292 293 292 291 288 287 289 286 283 284 282 280 278 279 279 278 279 276 276 276 276 275 275 274 274 274 275 275 276 276 277 278 277 278 278 278 278 278 279 279
295 294 294 293 291 292 290 289 289 289 286 284 281 283 280 278 278 278 277 278 276 275 274 275 275 275 275 274 274 274 274 275 276 276 276 277 277 278 278 279 279 280 281 280
291 293 293 292 291 289 288 288 287 284 283 284 282 278 280 278 278 277 277 275 274 274 274 274 274 274 274 274 273 274 274 275 275 276 276 277 277 278 278 279 280 279 280 280
294 293 292 291 288 287 286 285 284 282 280 276 280 280 279 277 276 276 274 273 273 273 273 274 274 274 275 275 275 274 274 275 275 276 276 277 277 277 278 278 278 278 279 279
288 287 287 287 286 285 284 283 281 280 279 279 278 276 274 273 273 272 273 273 273 273 273 273 273 274 275 275 274 275 275 275 275 276 277 277 278 279 277 277 277 277 277 278
286 284 285 283 282 280 280 278 275 272 273 276 275 273 273 272 271 272 273 273 273 273 273 273 273 274 275 274 275 275 276 276 276 277 278 279 279 278 277 277 277 277 277 278
281 282 282 281 276 274 271 270 272 270 270 273 272 273 273 272 272 272 273 272 271 271 272 273 273 274 274 275 275 275 275 275 277 278 278 278 278 277 277 277 276 276 276 277
281 284 280 279 278 275 270 269 271 271 273 273 273 272 272 272 272 272 272 272 272 272 272 273 273 274 275 275 274 274 275 276 276 278 277 277 277 276 276 276 275 275 276 276
281 280 279 277 276 274 272 273 274 273 273 272 272 271 271 271 270 270 271 271 271 271 272 272 273 274 275 274 274 275 275 276 276 277 277 277 276 276 276 275 274 274 275 276
277 276 275 275 274 274 272 273 273 272 272 271 271 270 270 270 270 270 270 270 270 270 271 272 273 274 274 274 274 275 275 276 276 277 276 276 276 276 275 274 274 274 274 274
276 275 275 274 273 273 273 272 272 272 271 270 270 270 269 270 270 270 270 270 270 270 270 272 274 272 273 272 274 275 276 276 277 276 276 276 275 274 275 275 274 274 274 274
274 274 273 273 272 272 272 271 271 270 269 269 269 269 269 269 269 269 269 268 269 269 271 272 271 271 271 273 275 276 276 276 275 275 275 275 274 274 274 274 274 274 274 274
273 272 272 271 271 270 270 269 268 268 268 268 268 268 268 267 267 267 267 268 268 269 270 270 270 270 273 274 275 274 274 273 274 274 275 275 274 274 274 274 274 274 274 274
271 270 270 270 269 269 268 267 266 267 267 267 267 267 266 266 266 266 266 266 268 268 269 269 269 271 272 273 272 270 270 271 272 273 274 274 274 274 274 274 274 274 274 274
270 269 269 269 268 267 267 266 266 266 265 265 265 265 265 264 265 265 266 266 266 267 268 267 268 270 271 269 268 268 269 270 271 272 274 274 274 274 274 274 274 275 275 275
269 269 269 268 267 267 266 265 266 265 264 265 264 264 264 265 265 264 264 264 265 266 265 265 267 267 267 267 267 267 268 269 271 272 274 274 274 274 274 274 274 275 274 275
268 268 268 266 266 265 265 266 265 264 265 263 263 263 264 263 262 262 263 264 264 264 264 263 264 266 267 267 268 269 269 269 271 272 273 273 273 273 274 274 275 275 276 276
266 268 266 265 265 265 265 265 263 264 263 262 263 263 262 262 261 262 262 262 263 262 263 263 263 265 266 268 267 269 269 270 271 272 273 272 272 273 273 273 274 275 276 276
Wind_Speed
7 8 5 8 9 10 12 15 12 17 7 3 7 4 2 3 4 2 3 4 3 2 6 7 7 6 6 8 11 13 16 19 20 21 21 21 21 21 21 20 21 21 24 25
5 10 10 20 13 12 16 19 18 15 13 5 3 2 2 0 1 2 2 2 2 3 4 4 5 6 8 10 13 16 19 20 21 21 21 22 22 23 22 22 24 25 25 24
17 5 5 11 16 17 2 2 2 8 3 3 2 1 2 1 1 5 6 5 3 2 4 5 9 10 13 14 16 18 20 20 20 20 21 23 24 25 25 26 26 25 24 26
9 1 15 5 2 4 9 5 6 9 4 3 3 2 3 2 4 5 5 3 4 6 5 4 10 11 14 16 19 20 21 20 20 21 24 26 25 24 25 26 24 24 26 26
6 8 2 2 4 3 4 3 3 5 2 2 2 5 2 2 2 1 2 5 9 10 7 7 11 13 15 17 18 19 20 19 21 22 24 24 22 23 25 25 23 24 23 25
1 5 6 2 2 3 3 3 4 5 2 1 2 2 3 3 1 4 6 8 10 5 4 10 12 12 16 18 19 20 18 20 21 22 21 22 23 23 23 23 22 22 22 22
8 7 1 3 3 3 3 4 3 5 4 1 3 3 3 1 5 5 7 8 5 5 8 11 12 13 15 17 19 18 19 21 21 21 22 21 21 21 22 23 22 25 23 25
1 3 6 1 2 4 4 4 5 3 3 4 4 3 3 4 5 3 4 5 5 9 8 12 12 14 16 18 18 19 19 21 20 20 19 18 20 22 23 23 23 23 22 24
5 3 2 3 3 5 8 6 4 3 2 2 2 3 2 2 3 5 5 9 12 10 17 17 15 16 18 19 18 17 18 19 19 19 19 19 20 20 22 21 20 20 19 20
2 1 3 5 8 2 3 4 4 3 2 3 3 2 2 1 4 7 10 13 13 18 18 20 18 18 18 19 17 16 17 18 18 18 18 19 19 20 19 20 20 21 21 22
4 2 6 4 7 5 4 4 4 3 1 3 3 2 1 2 4 9 12 11 15 16 17 18 19 20 18 17 15 14 15 17 19 19 19 21 22 21 21 21 22 23 20 21
5 8 3 7 6 6 5 4 3 3 2 2 2 3 3 4 9 11 11 16 17 17 19 20 21 22 20 16 13 14 16 17 19 17 20 19 19 24 21 20 22 25 23 23
2 10 7 9 7 3 5 5 1 0 2 2 2 3 4 4 9 11 15 17 17 18 19 21 21 22 18 14 13 16 18 22 20 19 19 19 18 18 19 25 19 21 21 21
4 6 5 3 5 5 9 6 5 4 5 6 4 5 6 6 9 14 17 18 17 19 22 20 21 21 17 15 18 18 20 21 19 22 22 22 20 15 19 18 19 21 24 22
7 5 4 6 10 5 5 3 2 2 1 2 5 7 9 11 14 17 16 16 18 19 20 21 21 20 17 18 19 21 22 24 23 23 22 20 17 20 17 17 18 20 23 23
5 6 7 6 4 1 3 3 3 1 1 0 7 11 12 13 15 16 16 17 18 19 23 21 19 18 19 19 20 23 24 21 19 21 21 17 17 17 16 16 18 19 20 21
4 4 4 3 2 2 3 5 3 2 4 7 9 11 13 14 14 16 19 19 20 20 19 16 19 20 19 18 22 25 24 25 20 23 20 17 18 16 16 15 17 18 20 22
3 4 2 2 4 4 3 2 3 5 5 8 10 11 12 12 12 17 19 20 20 19 16 18 20 21 19 24 24 24 23 23 22 22 19 17 18 17 14 17 18 18 20 23
4 5 6 6 6 6 6 4 3 2 2 6 8 10 10 9 12 16 17 20 21 16 19 19 20 20 25 24 23 22 22 25 24 19 19 18 20 18 15 18 18 19 20 20
4 5 6 6 6 5 4 2 0 1 3 7 9 11 12 14 16 17 19 17 18 19 23 25 21 24 22 28 22 23 25 22 23 18 20 18 18 19 18 18 16 19 21 22
2 2 2 2 3 3 4 4 2 4 9 8 9 11 13 16 14 16 15 14 18 21 23 23 25 25 28 25 27 21 21 20 17 22 20 20 20 19 19 19 19 20 21 23
3 3 3 3 5 6 7 8 10 11 11 12 11 13 15 14 15 15 14 17 21 22 23 24 24 26 28 29 25 21 19 25 25 22 20 20 19 19 18 19 20 21 23 24
6 5 4 5 6 6 6 10 12 9 10 13 14 14 14 14 14 15 13 16 22 24 25 23 26 27 27 27 20 26 27 23 22 21 21 20 20 18 19 18 18 21 23 24
4 5 3 3 3 3 4 7 9 7 10 11 12 15 18 17 15 14 17 22 24 25 25 25 26 27 27 26 27 24 23 23 22 22 21 17 17 19 17 16 18 21 22 20
6 7 3 3 4 4 7 8 8 9 10 10 14 15 14 16 17 22 22 23 21 22 25 25 25 24 24 25 25 25 23 23 23 23 17 18 17 16 15 15 17 18 19 21
8 8 2 4 4 6 8 8 9 10 12 14 16 15 14 18 19 20 21 20 22 22 25 25 26 26 26 28 28 27 25 23 21 19 17 16 14 14 13 14 17 18 19 21
9 10 1 5 6 6 9 11 11 11 15 17 15 13 18 19 20 20 19 21 23 24 24 24 24 24 25 24 27 21 21 19 15 15 13 11 12 13 13 16 17 16 19 22
Wind_Direction
241 238 192 212 220 193 209 239 247 272 237 160 160 171 194 283 311 356 88 96 72 79 91 80 63 40 18 358 345 339 333 328 324 320 317 316 314 313 311 307 303 301 299 293
258 246 247 258 252 238 241 248 255 265 273 131 151 167 222 230 163 141 164 171 233 186 85 53 30 2 343 338 335 331 327 323 323 320 319 318 317 316 312 309 307 304 300 297
274 200 257 261 229 230 229 167 185 239 117 129 143 263 358 26 136 156 185 196 202 270 328 359 3 344 336 327 326 325 326 327 325 323 318 317 314 313 312 311 310 305 301 300
281 106 263 299 279 169 111 78 77 90 107 182 178 115 129 151 150 165 203 223 270 297 307 331 342 332 332 332 330 329 328 327 324 321 316 316 314 311 310 310 302 301 300 296
249 233 280 158 201 169 137 148 170 138 165 242 29 142 84 69 75 212 265 291 288 306 308 336 341 339 333 328 328 328 326 322 320 316 315 315 310 308 312 310 301 303 298 295
212 257 251 205 78 87 119 185 167 135 119 11 69 131 255 175 268 298 290 284 295 330 2 339 338 332 325 327 328 326 323 318 317 316 311 308 311 309 310 308 305 302 300 298
262 268 300 153 152 61 183 193 155 133 161 143 92 188 224 277 293 306 309 308 325 354 344 338 332 325 324 325 325 325 321 319 318 319 317 314 311 312 313 309 303 304 298 299
312 279 292 133 102 200 132 88 123 131 182 150 202 278 277 295 276 15 3 16 359 332 333 332 336 328 327 324 328 322 321 318 320 321 320 312 312 315 314 307 303 300 297 297
206 240 18 349 88 121 129 146 144 132 231 147 263 233 272 270 346 350 359 348 345 335 331 331 336 333 325 323 322 320 317 316 318 319 320 317 309 303 303 304 297 294 291 287
342 133 110 97 87 102 136 125 133 175 209 182 223 268 299 16 323 336 345 342 343 333 327 321 330 328 324 321 319 316 314 315 317 315 313 310 312 308 296 293 292 288 285 283
251 102 125 166 182 148 119 108 132 147 160 200 179 299 208 251 298 332 329 334 329 321 315 316 326 324 328 325 317 313 311 314 317 312 309 308 310 304 300 298 293 292 304 303
234 183 141 175 154 139 140 157 148 160 345 311 199 209 239 286 325 327 326 329 328 323 322 326 326 325 329 331 321 316 313 314 315 302 305 302 297 302 312 309 308 307 305 305
198 158 163 153 129 138 131 119 105 163 218 204 64 344 329 317 326 324 326 334 333 324 322 324 324 322 332 334 327 321 314 314 311 299 296 297 299 296 299 313 312 312 312 312
70 117 92 164 136 85 104 76 57 49 78 81 45 13 349 323 327 334 334 335 333 327 323 326 325 320 333 332 326 320 315 310 299 301 306 307 299 297 306 304 311 312 318 318
52 41 101 124 78 57 56 47 92 123 166 44 11 354 351 342 334 331 336 337 332 328 327 330 325 323 331 328 324 322 318 314 311 307 307 301 303 314 303 302 303 306 312 314
131 116 91 82 140 52 28 287 152 273 249 47 360 349 344 337 331 332 339 341 335 324 324 325 321 326 325 325 325 321 318 311 302 300 298 294 307 303 299 301 304 306 307 308
170 126 144 164 131 174 203 246 174 203 347 351 354 343 334 335 335 336 337 338 332 326 325 326 325 327 321 323 326 319 314 313 306 306 300 294 302 295 293 294 303 301 302 309
119 127 157 130 157 166 182 230 38 23 351 347 343 336 329 334 321 324 329 332 330 332 335 333 327 323 323 324 320 315 309 305 300 298 297 304 302 297 296 305 302 299 303 311
113 137 147 159 178 167 143 132 87 35 5 341 325 313 307 314 322 322 328 326 320 311 323 328 325 319 323 321 317 311 306 301 300 299 310 308 306 306 297 303 304 302 307 310
196 181 166 156 163 144 140 133 79 171 342 340 328 310 313 326 330 325 325 309 307 313 320 322 321 324 321 317 314 307 299 296 300 301 312 307 302 303 304 305 305 312 317 320
138 161 158 140 95 73 18 360 84 5 345 338 319 313 317 325 327 323 317 314 319 328 324 320 320 317 317 309 309 307 307 304 308 312 305 305 305 303 304 307 314 319 322 318
85 58 19 12 19 11 43 56 20 354 344 342 341 336 339 334 329 322 314 306 315 324 321 316 315 315 310 310 311 313 305 312 309 303 300 300 301 299 301 308 313 319 321 320
58 39 28 42 36 33 38 16 1 356 349 346 331 331 329 321 319 316 317 322 320 319 318 316 314 313 312 315 313 312 311 307 303 301 303 301 301 301 304 305 310 315 318 321
57 27 26 56 45 52 15 349 351 357 347 340 329 327 326 321 317 319 313 315 319 321 319 320 317 315 314 318 316 312 306 303 302 300 303 297 300 303 302 307 315 322 323 324
25 358 14 32 17 360 340 340 343 347 340 333 325 338 341 335 316 317 319 320 322 322 320 322 322 320 317 313 307 305 306 307 305 301 297 305 305 308 308 311 317 323 323 324
4 338 12 36 12 351 337 336 348 338 339 330 324 334 333 327 325 327 322 324 325 329 327 325 323 322 321 318 313 305 303 303 306 308 307 307 311 310 310 315 318 323 328 330
343 339 31 10 355 346 335 353 343 336 333 325 307 338 337 331 331 329 329 334 337 329 325 324 325 327 329 331 344 330 318 321 318 312 315 317 320 320 320 323 323 327 331 331